Погода в Богдановиче

Россия / Свердловская область     56°46′35″N   62°02′46″E
темп.,
°C
ветер,
м/с
пор.,
м/с
влажн.,
%
обл.,
%
осадки,
мм/ч
давл.,
гПа
погр.,
м
24 сентября, пт
пт2423:00+4ю33695 0.0 103024
02:00+3ююз35765 0.0 102972
05:00+2ююз35795 0.0 102971
08:00+3ю37715 0.0 1029170
11:00+10ююз5746100 0.0 1028584
14:00+13ююз5639100 0.0 1027868
17:00+13ююз3640100 0.0 1026361
20:00+8ююв335276 0.0 102630
25 сентября, сб
сб2523:00+7ю355333 0.0 102580
02:00+6ююз335979 0.0 102639
05:00+4ююз356288 0.0 102574
08:00+5ююв35595 0.0 1024130
11:00+12ююв46385 0.0 1023528
14:00+15ююв563039 0.0 10221098
17:00+14юв4734100 0.0 1021426
20:00+9вюв4104882 0.0 1021152
26 сентября, вс
вс2623:00+7вюв41058100 0.0 1022199
02:00+6в51167100 0.0 1022264
05:00+5в51177100 0.0 1022353
08:00+5вюв61273100 0.0 1023428
11:00+8вюв81155100 0.0 1023736
14:00+10вюв8946100 0.0 10231205
17:00+9вюв71035100 0.0 10231172
20:00+7в71241100 0.0 1023930
27 сентября, пн
пн2723:00+6в71344100 0.0 1023822
02:00+4в71255100 0.0 1023746
05:00+2всв81366100 0.0 1023666
08:00+1всв81570100 0.0 1024709
11:00+5в9134910 0.0 10241038
14:00+8всв911425 0.0 10241522
17:00+8всв8114466 0.0 10231621
20:00+4св6135799 0.0 1025518
28 сентября, вт
вт2823:00+2всв5117592 0.0 1026565
02:00+3св5961100 0.0 10251344
05:00+3св6959100 0.0 1025939
08:00+3св7962100 0.0 10251037
11:00+4св7957100 0.0 10251494
14:00+5св7952100 0.0 10241617
17:00+5ссв795398 0.0 10241370
20:00+2с5117133 0.0 1025466